Location: Newark
(7.0858°N, 171.3717°E)
Time: 07:07:52
(UTC+00:00)

Courier 1B Rocket - Pass Details

Date: 05 December 2020
Orbit: 920 x 1202 km, 28.2° (Epoch: 17 January)

Event Time Altitude Azimuth Distance (km) Brightness Sun altitude
Rises 17:39:29 0° 309° (NW) 4,039 - -13.3°
Exits shadow 17:43:03 - 327° (NNW) 3,270 7.3 -12.5°
Reaches altitude 10° 17:44:02 10° 333° (NNW) 3,108 7.2 -12.2°
Maximum altitude 17:47:53 14° 3° (N) 2,810 7.2 -11.3°
Drops below altitude 10° 17:51:45 10° 33° (NNE) 3,125 7.8 -10.5°
Sets 17:56:20 0° 57° (ENE) 4,075 8.8 -9.4°
